Regional Weather Roundup
Issued by NWS

Home | Current Version | Previous Version | Text Only | Print | Product List | Glossary Off
Versions: 1 2 3 4 5 6 7 8 9 10 11 12 13 14 15 16 17 18 19 20 21 22 23 24 25 26 27 28 29 30 31 32 33 34 35 36 37 38 39 40 41 42 43 44 45 46 47 48 49 50

405
ASUS45 KBOI 270610
RWRID

IDAHO REGIONAL WEATHER ROUNDUP
NATIONAL WEATHER SERVICE BOISE ID
1200 AM MDT TUE SEP 27 2016

NOTE: "FAIR" INDICATES FEW OR NO CLOUDS BELOW 12000 FEET
WITH NO SIGNIFICANT WEATHER AND/OR OBSTRUCTIONS TO VISIBILITY

IDZ012-014-270700-
SOUTHWEST IDAHO


CITY           SKY/WX    TMP DP  RH WIND       PRES   REMARKS
BOISE          CLEAR     64  42  44 SE7       30.12F
CALDWELL       CLEAR     58  44  60 E5        30.11S
MOUNTAIN HOME  CLEAR     57  46  64 E7        30.14S
$$

IDZ016-017-270700-
SOUTHCENTRAL IDAHO


CITY           SKY/WX    TMP DP  RH WIND       PRES   REMARKS
BURLEY         CLEAR     46  45  96 N3        30.22S
JEROME         CLEAR     63  42  46 E12       30.21S
TWIN FALLS     CLEAR     56  45  66 S8        30.21S
$$

IDZ019>023-270700-
SOUTHEAST IDAHO


CITY           SKY/WX    TMP DP  RH WIND       PRES   REMARKS
IDAHO FALLS    CLOUDY    46  42  86 NW3       30.28F
POCATELLO      CLEAR     49  42  77 NE3       30.27R
REXBURG        CLEAR     49  45  86 N5        30.29S
$$

IDZ006-010-011-018-031-032-270700-
CENTRAL IDAHO MOUNTAINS


CITY           SKY/WX    TMP DP  RH WIND       PRES   REMARKS
MCCALL         CLEAR     49  41  74 CALM      30.25S
HAILEY         CLEAR     52  45  76 NW8       30.33S
STANLEY          N/A     43  35  73 CALM      30.37S
SALMON         CLEAR     48  43  81 CALM      30.23S
CHALLIS        CLEAR     53  37  54 CALM      30.28R
$$

IDZ002-004-006-007-026-270700-
NORTHERN IDAHO


CITY           SKY/WX    TMP DP  RH WIND       PRES   REMARKS
LEWISTON       CLEAR     68  43  40 SE3       29.98S
LOWELL           N/A     56  53  90 N3        30.10R
COEUR D`ALENE  NOT AVBL
MULLAN PASS    CLEAR     59  38  45 S6        30.24S
$$




USA.gov is the U.S. government's official web portal to all federal, state and local government web resources and services.